FW9486 Weather Reports


Display with metric or nautical units.
time (UTC)temp
F
wind
direction
speed
MPH
gust
MPH
rain 1hr
in
rain 24hr
in
rain mn
in
humidity
%
barometer
mb
20260502193039 70 136 2.0 4.0 0.00 0.00 0.00 29 1013.4
20260502191543 69 110 1.0 5.0 0.00 0.00 0.00 32 1013.5
20260502190037 68 149 1.0 6.0 0.00 0.00 0.00 28 1013.7
20260502184542 67 0 2.0 4.0 0.00 0.00 0.00 24 1013.9
20260502183034 66 96 2.0 4.0 0.00 0.00 0.00 41 1014.3
20260502181532 64 135 1.0 4.0 0.00 0.00 0.00 49 1014.2
20260502163042 52 127 1.0 3.0 0.00 0.00 0.00 71 1015.3
20260502161556 49 127 1.0 2.0 0.00 0.00 0.00 72 1015.5
20260502151535 44 110 1.0 2.0 0.00 0.00 0.00 78 1015.6
20260502123107 35 0 0.0 1.0 0.00 0.00 0.00 92 1015.5
20260502121535 34 0 0.0 0.0 0.00 0.00 0.00 91 1015.5
20260502114537 35 0 0.0 1.0 0.00 0.00 0.00 89 1015.6
20260502113036 36 0 0.0 0.0 0.00 0.00 0.00 87 1015.5
20260502111554 37 0 0.0 0.0 0.00 0.00 0.00 88 1015.5
20260502110045 36 0 0.0 0.0 0.00 0.00 0.00 89 1015.6
20260502104534 36 0 0.0 0.0 0.00 0.00 0.00 85 1015.5
20260502103036 37 0 0.0 0.0 0.00 0.00 0.00 86 1015.4
20260502101540 37 0 0.0 0.0 0.00 0.00 0.00 86 1015.3
20260502070036 44 0 0.0 0.0 0.00 0.00 0.00 69 1015.3
20260502064535 44 0 0.0 1.0 0.00 0.00 0.00 69 1015.3
20260502063051 45 0 0.0 1.0 0.00 0.00 0.00 67 1015.2
20260502061536 45 0 0.0 0.0 0.00 0.00 0.00 66 1015.2
20260502060040 48 27 0.0 1.0 0.00 0.00 0.00 62 1015.2
20260502054535 48 26 0.0 1.0 0.00 0.00 0.00 61 1015.2
20260502053040 48 0 0.0 0.0 0.00 0.00 0.00 60 1015.1
20260502051535 49 0 0.0 1.0 0.00 0.00 0.00 58 1015.1
20260502050038 51 0 0.0 0.0 0.00 0.00 0.00 54 1015.0
20260502044536 51 0 0.0 0.0 0.00 0.00 0.00 54 1015.1
20260502043035 52 0 0.0 1.0 0.00 0.00 0.00 55 1015.2
20260502041536 53 0 0.0 1.0 0.00 0.00 0.00 51 1015.0
20260502040034 54 0 0.0 2.0 0.00 0.00 0.00 50 1014.9
20260502034537 54 5 0.0 1.0 0.00 0.00 0.00 49 1014.8
20260502033044 55 0 1.0 2.0 0.00 0.00 0.00 49 1014.7
20260502031536 56 49 1.0 3.0 0.00 0.00 0.00 46 1014.6
20260502030035 58 327 1.0 6.0 0.00 0.00 0.00 41 1014.5
20260502024536 58 312 1.0 3.0 0.00 0.00 0.00 44 1014.4
20260502023036 59 319 2.0 3.0 0.00 0.00 0.00 43 1014.3
20260502021536 61 316 1.0 3.0 0.00 0.00 0.00 39 1014.4
20260502020035 62 314 1.0 3.0 0.00 0.00 0.00 38 1014.4
20260502014537 63 313 1.0 2.0 0.00 0.00 0.00 37 1014.4
20260502013036 64 325 0.0 2.0 0.00 0.00 0.00 33 1014.5
20260502011533 65 327 0.0 4.0 0.00 0.00 0.00 32 1014.6
20260502010049 66 302 1.0 5.0 0.00 0.00 0.00 31 1014.7
20260502004552 66 347 2.0 4.0 0.00 0.00 0.00 29 1014.7
20260502003035 67 0 2.0 6.0 0.00 0.00 0.00 30 1014.8
20260502001537 67 253 3.0 10.0 0.00 0.00 0.00 30 1014.9
20260502000034 67 263 4.0 9.0 0.00 0.00 0.00 29 1014.9
20260501234534 68 302 3.0 13.0 0.00 0.00 0.00 31 1014.8
20260501233039 68 234 3.0 7.0 0.00 0.00 0.00 31 1015.0
20260501231537 69 272 2.0 6.0 0.00 0.00 0.00 30 1014.9
20260501230036 68 224 2.0 8.0 0.00 0.00 0.00 31 1015.1
20260501224535 67 338 2.0 10.0 0.00 0.00 0.00 29 1015.3
20260501223033 67 305 1.0 5.0 0.00 0.00 0.00 29 1015.4
20260501221532 67 119 0.0 7.0 0.00 0.00 0.00 29 1015.6
20260501220048 67 100 3.0 6.0 0.00 0.00 0.00 27 1015.9
20260501214535 67 50 0.0 6.0 0.00 0.00 0.00 27 1016.2
20260501213046 67 287 6.0 12.0 0.00 0.00 0.00 27 1016.4
20260501211536 67 342 4.0 9.0 0.00 0.00 0.00 28 1016.5
20260501210042 67 306 3.0 9.0 0.00 0.00 0.00 32 1016.5
20260501204539 66 297 4.0 12.0 0.00 0.00 0.00 30 1016.7
20260501203038 66 325 5.0 11.0 0.00 0.00 0.00 26 1016.8
20260501201535 66 215 3.0 10.0 0.00 0.00 0.00 32 1017.0
20260501200034 65 216 6.0 11.0 0.00 0.00 0.00 34 1017.0
20260501194539 65 285 5.0 13.0 0.00 0.00 0.00 33 1017.0